Location: ??
(35.1714°N, 128.2806°E)
Time: 15:24:15
(UTC+00:00)

Okean O Rocket - Pass Details

Date: 29 October 2020
Orbit: 623 x 644 km, 98.2° (Epoch: 01 December)

Event Time Altitude Azimuth Distance (km) Brightness Sun altitude
Rises 21:03:40 0° 25° (NNE) 2,912 5.2 -9.3°
Reaches altitude 10° 21:06:06 10° 36° (NE) 2,003 4.5 -8.8°
Maximum altitude 21:09:54 29° 97° (E) 1,147 4.0 -8.0°
Drops below altitude 10° 21:13:42 10° 158° (SSE) 2,000 4.7 -7.3°
Sets 21:16:07 0° 170° (S) 2,907 5.3 -6.8°
